CST,Max TemperatureF,Mean TemperatureF,Min TemperatureF,Max Dew PointF,MeanDew PointF,Min DewpointF,Max Humidity, Mean Humidity, Min Humidity, Max Sea Level PressureIn, Mean Sea Level PressureIn, Min Sea Level PressureIn, Max VisibilityMiles, Mean VisibilityMiles, Min VisibilityMiles, Max Wind SpeedMPH, Mean Wind SpeedMPH, Max Gust SpeedMPH,PrecipitationIn, CloudCover, Events, WindDirDegrees
2012-11-1,62,46,30,34,27,18,83,51,19,30.04,29.98,29.94,10,10,10,10,5,,0.00,3,,253
2012-11-2,64,54,44,40,32,28,73,43,26,30.06,30.00,29.90,10,5,0,9,5,,0.00,0,,345
2012-11-3,78,58,39,53,42,33,80,57,38,30.09,30.00,29.91,10,4,1,12,5,,0.00,3,,70
2012-11-4,55,46,37,39,35,30,100,77,40,30.21,30.16,30.11,10,6,2,8,3,,0.00,3,,12
2012-11-5,50,44,37,41,35,31,100,75,48,30.17,30.10,30.06,10,10,9,14,5,,0.08,5,Rain,63
2012-11-6,48,44,39,46,43,38,100,94,73,30.07,29.99,29.94,10,6,2,8,1,,0.06,8,,278
2012-11-7,48,44,39,46,44,39,100,97,76,30.17,30.00,29.92,10,8,2,10,5,,0.07,7,Rain,290
2012-11-8,56,44,32,44,37,32,100,94,51,30.29,30.24,30.17,10,4,0,5,1,,0.00,0,Fog,60
2012-11-9,68,52,35,43,39,35,100,64,33,30.26,30.19,30.13,10,9,6,13,5,,0.00,0,,176
2012-11-10,73,59,45,53,43,39,82,55,34,30.25,30.19,30.14,10,10,10,15,9,23,0.00,0,,178
2012-11-11,70,62,53,58,48,41,95,58,41,30.21,30.10,30.04,10,10,10,24,13,33,0.21,5,Rain,175
2012-11-12,59,44,30,59,47,23,100,94,41,30.48,30.19,30.01,10,8,2,18,11,30,0.59,7,Rain,281
2012-11-13,47,36,25,31,26,22,99,68,37,30.55,30.49,30.45,10,10,10,7,2,,0.00,0,,29
2012-11-14,50,40,30,30,28,25,91,67,46,30.48,30.41,30.34,10,10,10,12,5,,0.00,0,,40
2012-11-15,52,40,27,33,30,27,99,71,40,30.39,30.35,30.31,10,10,10,8,2,,0.00,0,,42
2012-11-16,55,44,33,35,30,25,90,64,30,30.44,30.41,30.36,10,10,7,9,4,,0.00,0,,24
2012-11-17,58,44,29,36,32,28,93,69,38,30.50,30.44,30.40,10,9,5,7,3,,0.00,0,,44
2012-11-18,64,47,30,37,32,30,96,60,28,30.45,30.38,30.34,10,9,2,7,1,,0.00,0,,308
2012-11-19,65,48,31,39,34,30,96,57,27,30.35,30.27,30.17,10,9,0,5,1,,0.00,3,,50
2012-11-20,68,58,49,48,44,40,81,62,42,30.21,30.13,30.06,10,8,4,10,2,,0.00,5,,237
2012-11-21,63,52,38,47,43,36,99,74,44,30.26,30.22,30.14,10,9,3,10,2,,0.00,0,,352
2012-11-22,66,50,35,44,36,32,93,65,30,30.25,30.18,30.10,10,7,2,10,3,,0.00,2,,205
2012-11-23,57,46,33,48,38,21,82,64,38,30.31,30.16,30.09,10,10,10,14,8,22,0.00,4,Rain,275
2012-11-24,40,32,24,21,20,18,76,62,41,30.36,30.27,30.16,10,10,10,9,2,,0.00,0,,305
2012-11-25,58,42,27,26,22,19,71,48,24,30.15,30.08,29.99,10,10,10,17,6,20,0.00,1,,206
2012-11-26,59,50,40,50,40,28,100,82,39,30.24,30.15,30.07,10,8,2,8,4,,0.48,8,Rain,77
2012-11-27,41,34,28,39,34,21,100,92,56,30.39,30.31,30.22,10,10,5,10,5,,0.01,6,Rain,24
2012-11-28,48,36,23,41,28,23,100,92,49,30.50,30.44,30.39,10,5,0,5,1,,0.00,1,Fog,206
2012-11-29,58,42,27,32,28,27,99,64,30,30.42,30.34,30.27,10,10,7,9,3,,0.00,0,,184
2012-11-30,60,46,33,42,36,28,85,65,44,30.30,30.25,30.18,10,9,3,15,6,,0.00,1,,173